Time,TemperatureF,DewpointF,PressureIn,WindDirection,WindDirectionDegrees,WindSpeedMPH,WindSpeedGustMPH,Humidity,HourlyPrecipIn,Conditions,Clouds,dailyrainin,SoftwareType,DateUTC
2013-01-14 00:02:00,-1.0,-4.0,-100.00,ESE,117,2.0,3.0,89,0.00,,,-99.99,,2013-01-14 07:02:00,
2013-01-14 00:12:00,-1.0,-4.0,-100.00,ESE,117,2.0,3.0,89,0.00,,,-99.99,,2013-01-14 07:12:00,
2013-01-14 00:33:00,-3.0,-5.0,-100.00,WSW,248,0.0,1.0,89,0.00,,,-99.99,,2013-01-14 07:33:00,
2013-01-14 00:43:00,-2.0,-4.0,-100.00,NNE,21,0.0,2.0,89,0.00,,,-99.99,,2013-01-14 07:43:00,
2013-01-14 00:52:00,-2.0,-4.0,-100.00,NNE,21,0.0,2.0,89,0.00,,,-99.99,,2013-01-14 07:52:00,
2013-01-14 01:00:00,-2.0,-4.0,-100.00,ESE,114,2.0,3.0,89,0.00,,,-99.99,,2013-01-14 08:00:00,
2013-01-14 01:02:00,-1.0,-3.0,-100.00,East,90,0.0,2.0,90,0.00,,,-99.99,,2013-01-14 08:02:00,
2013-01-14 01:11:00,-2.0,-4.0,-100.00,SE,130,1.0,2.0,89,0.00,,,-99.99,,2013-01-14 08:11:00,
2013-01-14 01:22:00,-2.0,-4.0,-100.00,SE,130,1.0,2.0,89,0.00,,,-99.99,,2013-01-14 08:22:00,
2013-01-14 01:32:00,-2.0,-4.0,-100.00,SE,130,1.0,2.0,89,0.00,,,-99.99,,2013-01-14 08:32:00,
2013-01-14 01:42:00,-2.0,-4.0,-100.00,ESE,114,2.0,3.0,89,0.00,,,-99.99,,2013-01-14 08:42:00,
2013-01-14 01:53:00,-2.0,-4.0,-100.00,ESE,114,2.0,3.0,89,0.00,,,-99.99,,2013-01-14 08:53:00,
2013-01-14 02:12:00,-1.0,-4.0,-100.00,SE,131,3.0,4.0,89,0.00,,,-99.99,,2013-01-14 09:12:00,
2013-01-14 02:22:00,-1.0,-4.0,-100.00,SE,131,3.0,4.0,89,0.00,,,-99.99,,2013-01-14 09:22:00,
2013-01-14 02:33:00,-1.0,-4.0,-100.00,SE,131,3.0,4.0,89,0.00,,,-99.99,,2013-01-14 09:33:00,
2013-01-14 02:42:00,-3.0,-6.0,-100.00,ESE,117,2.0,3.0,88,0.00,,,-99.99,,2013-01-14 09:42:00,
2013-01-14 02:53:00,-3.0,-6.0,-100.00,SE,133,3.0,4.0,88,0.00,,,-99.99,,2013-01-14 09:53:00,
2013-01-14 03:02:00,-3.0,-6.0,-100.00,SE,133,3.0,4.0,88,0.00,,,-99.99,,2013-01-14 10:02:00,
2013-01-14 03:12:00,-3.0,-6.0,-100.00,SE,133,3.0,4.0,88,0.00,,,-99.99,,2013-01-14 10:12:00,
2013-01-14 03:22:00,-3.0,-6.0,-100.00,SE,131,3.0,4.0,88,0.00,,,-99.99,,2013-01-14 10:22:00,
2013-01-14 03:32:00,-3.0,-6.0,-100.00,SE,131,3.0,4.0,88,0.00,,,-99.99,,2013-01-14 10:32:00,
2013-01-14 03:42:00,-3.0,-5.0,-100.00,South,169,2.0,3.0,89,0.00,,,-99.99,,2013-01-14 10:42:00,
2013-01-14 03:53:00,-3.0,-5.0,-100.00,South,169,2.0,3.0,89,0.00,,,-99.99,,2013-01-14 10:53:00,
2013-01-14 04:02:00,-3.0,-5.0,-100.00,South,169,2.0,3.0,89,0.00,,,-99.99,,2013-01-14 11:02:00,
2013-01-14 04:11:00,-3.0,-6.0,-100.00,SSW,203,2.0,5.0,89,0.00,,,-99.99,,2013-01-14 11:11:00,
2013-01-14 04:22:00,-3.0,-6.0,-100.00,SSW,203,2.0,5.0,89,0.00,,,-99.99,,2013-01-14 11:22:00,
2013-01-14 04:32:00,-3.0,-6.0,-100.00,SSW,203,2.0,5.0,89,0.00,,,-99.99,,2013-01-14 11:32:00,
2013-01-14 04:42:00,-3.0,-6.0,-100.00,SE,130,3.0,3.0,88,0.00,,,-99.99,,2013-01-14 11:42:00,
2013-01-14 04:53:00,-3.0,-5.0,-100.00,ESE,121,3.0,4.0,89,0.00,,,-99.99,,2013-01-14 11:53:00,
2013-01-14 05:02:00,-3.0,-5.0,-100.00,ESE,121,3.0,4.0,89,0.00,,,-99.99,,2013-01-14 12:02:00,
2013-01-14 05:12:00,-3.0,-6.0,-100.00,ESE,123,3.0,4.0,88,0.00,,,-99.99,,2013-01-14 12:12:00,
2013-01-14 05:22:00,-3.0,-6.0,-100.00,ESE,123,3.0,4.0,88,0.00,,,-99.99,,2013-01-14 12:22:00,
2013-01-14 05:33:00,-3.0,-6.0,-100.00,ESE,123,3.0,4.0,88,0.00,,,-99.99,,2013-01-14 12:33:00,
2013-01-14 05:42:00,-4.0,-6.0,-100.00,SE,126,2.0,4.0,88,0.00,,,-99.99,,2013-01-14 12:42:00,
2013-01-14 05:53:00,-3.0,-6.0,-100.00,ESE,120,3.0,4.0,88,0.00,,,-99.99,,2013-01-14 12:53:00,
2013-01-14 06:03:00,-3.0,-6.0,-100.00,ESE,120,3.0,4.0,88,0.00,,,-99.99,,2013-01-14 13:03:00,
2013-01-14 06:12:00,-4.0,-7.0,-100.00,ESE,114,4.0,5.0,88,0.00,,,-99.99,,2013-01-14 13:12:00,
2013-01-14 06:22:00,-4.0,-7.0,-100.00,ESE,112,5.0,6.0,88,0.00,,,-99.99,,2013-01-14 13:22:00,
2013-01-14 06:33:00,-4.0,-7.0,-100.00,ESE,112,5.0,6.0,88,0.00,,,-99.99,,2013-01-14 13:33:00,
2013-01-14 06:43:00,-4.0,-7.0,-100.00,ESE,119,6.0,7.0,88,0.00,,,-99.99,,2013-01-14 13:43:00,
2013-01-14 06:53:00,-4.0,-7.0,-100.00,ESE,119,6.0,7.0,88,0.00,,,-99.99,,2013-01-14 13:53:00,
2013-01-14 07:02:00,-4.0,-7.0,-100.00,ESE,116,7.0,8.0,88,0.00,,,-99.99,,2013-01-14 14:02:00,
2013-01-14 07:12:00,-4.0,-7.0,-100.00,ESE,120,7.0,8.0,88,0.00,,,-99.99,,2013-01-14 14:12:00,
2013-01-14 07:22:00,-4.0,-7.0,-100.00,ESE,117,6.0,9.0,88,0.00,,,-99.99,,2013-01-14 14:22:00,
2013-01-14 07:32:00,-4.0,-7.0,-100.00,ESE,117,6.0,9.0,88,0.00,,,-99.99,,2013-01-14 14:32:00,
2013-01-14 07:42:00,-4.0,-7.0,-100.00,ESE,121,7.0,10.0,88,0.00,,,-99.99,,2013-01-14 14:42:00,
2013-01-14 07:53:00,-4.0,-7.0,-100.00,ESE,121,7.0,10.0,88,0.00,,,-99.99,,2013-01-14 14:53:00,
2013-01-14 08:02:00,-4.0,-7.0,-100.00,ESE,121,7.0,10.0,88,0.00,,,-99.99,,2013-01-14 15:02:00,
2013-01-14 08:12:00,-4.0,-7.0,-100.00,ESE,121,6.0,8.0,88,0.00,,,-99.99,,2013-01-14 15:12:00,
2013-01-14 08:23:00,-4.0,-7.0,-100.00,ESE,121,6.0,8.0,88,0.00,,,-99.99,,2013-01-14 15:23:00,
2013-01-14 08:33:00,-4.0,-7.0,-100.00,ESE,121,6.0,8.0,88,0.00,,,-99.99,,2013-01-14 15:33:00,
2013-01-14 08:42:00,-4.0,-7.0,-100.00,SE,124,5.0,7.0,88,0.00,,,-99.99,,2013-01-14 15:42:00,
2013-01-14 08:53:00,-4.0,-7.0,-100.00,ESE,123,7.0,9.0,88,0.00,,,-99.99,,2013-01-14 15:53:00,
2013-01-14 09:02:00,-4.0,-7.0,-100.00,ESE,123,7.0,9.0,88,0.00,,,-99.99,,2013-01-14 16:02:00,
2013-01-14 09:12:00,-4.0,-7.0,-100.00,SE,124,6.0,8.0,88,0.00,,,-99.99,,2013-01-14 16:12:00,
2013-01-14 09:23:00,-4.0,-7.0,-100.00,SE,124,6.0,8.0,88,0.00,,,-99.99,,2013-01-14 16:23:00,
2013-01-14 09:33:00,-4.0,-7.0,-100.00,SE,124,6.0,8.0,88,0.00,,,-99.99,,2013-01-14 16:33:00,
2013-01-14 09:42:00,-4.0,-7.0,-100.00,SE,130,7.0,9.0,88,0.00,,,-99.99,,2013-01-14 16:42:00,
2013-01-14 09:53:00,-4.0,-7.0,-100.00,SE,130,7.0,9.0,88,0.00,,,-99.99,,2013-01-14 16:53:00,
2013-01-14 10:03:00,-4.0,-7.0,-100.00,SE,128,6.0,8.0,88,0.00,,,-99.99,,2013-01-14 17:03:00,
2013-01-14 10:12:00,-4.0,-6.0,-100.00,SE,136,6.0,8.0,88,0.00,,,-99.99,,2013-01-14 17:12:00,
2013-01-14 10:22:00,-4.0,-6.0,-100.00,SE,136,6.0,8.0,88,0.00,,,-99.99,,2013-01-14 17:22:00,
2013-01-14 10:33:00,-4.0,-6.0,-100.00,SE,136,6.0,8.0,88,0.00,,,-99.99,,2013-01-14 17:33:00,
2013-01-14 10:42:00,-3.0,-5.0,-100.00,SE,138,8.0,12.0,89,0.00,,,-99.99,,2013-01-14 17:42:00,
2013-01-14 10:53:00,-3.0,-5.0,-100.00,SE,138,8.0,12.0,89,0.00,,,-99.99,,2013-01-14 17:53:00,
2013-01-14 11:02:00,-3.0,-5.0,-100.00,SE,138,8.0,12.0,89,0.00,,,-99.99,,2013-01-14 18:02:00,
2013-01-14 11:12:00,-2.0,-5.0,-100.00,SSE,152,5.0,9.0,89,0.00,,,-99.99,,2013-01-14 18:12:00,
2013-01-14 11:22:00,-2.0,-5.0,-100.00,SSE,152,5.0,9.0,89,0.00,,,-99.99,,2013-01-14 18:22:00,
2013-01-14 11:33:00,-2.0,-5.0,-100.00,SSE,152,5.0,9.0,89,0.00,,,-99.99,,2013-01-14 18:33:00,
2013-01-14 11:42:00,-2.0,-5.0,-100.00,SSE,152,6.0,9.0,89,0.00,,,-99.99,,2013-01-14 18:42:00,
2013-01-14 11:53:00,-1.0,-4.0,-100.00,SSE,158,6.0,9.0,90,0.00,,,-99.99,,2013-01-14 18:53:00,
2013-01-14 12:03:00,-1.0,-4.0,-100.00,SSE,158,6.0,9.0,90,0.00,,,-99.99,,2013-01-14 19:03:00,
2013-01-14 12:12:00,-1.0,-3.0,-100.00,SSE,155,6.0,8.0,89,0.00,,,-99.99,,2013-01-14 19:12:00,
2013-01-14 12:22:00,-1.0,-3.0,-100.00,SSE,155,6.0,8.0,89,0.00,,,-99.99,,2013-01-14 19:22:00,
2013-01-14 12:32:00,-1.0,-3.0,-100.00,SSE,164,6.0,9.0,90,0.00,,,-99.99,,2013-01-14 19:32:00,
2013-01-14 12:42:00,0.0,-3.0,-100.00,SSE,155,6.0,9.0,90,0.00,,,-99.99,,2013-01-14 19:42:00,
2013-01-14 12:53:00,0.0,-2.0,-100.00,SSE,158,7.0,11.0,90,0.04,,,-99.99,,2013-01-14 19:53:00,
2013-01-14 13:03:00,0.0,-2.0,-100.00,SSE,158,7.0,11.0,90,0.04,,,-99.99,,2013-01-14 20:03:00,
2013-01-14 13:12:00,0.0,-2.0,-100.00,SSE,148,8.0,12.0,90,0.00,,,-99.99,,2013-01-14 20:12:00,
2013-01-14 13:22:00,0.0,-2.0,-100.00,SSE,148,8.0,12.0,90,0.00,,,-99.99,,2013-01-14 20:22:00,
2013-01-14 13:33:00,0.0,-2.0,-100.00,SSE,148,8.0,12.0,90,0.00,,,-99.99,,2013-01-14 20:33:00,
2013-01-14 13:42:00,0.0,-2.0,-100.00,SSE,154,8.0,13.0,90,0.00,,,-99.99,,2013-01-14 20:42:00,
2013-01-14 13:53:00,0.0,-2.0,-100.00,SE,143,7.0,9.0,90,0.00,,,-99.99,,2013-01-14 20:53:00,
2013-01-14 14:02:00,0.0,-2.0,-100.00,SE,143,7.0,9.0,90,0.00,,,-99.99,,2013-01-14 21:02:00,
2013-01-14 14:12:00,1.0,-1.0,-100.00,SE,143,8.0,12.0,90,0.00,,,-99.99,,2013-01-14 21:12:00,
2013-01-14 14:22:00,1.0,-1.0,-100.00,SE,143,8.0,12.0,90,0.00,,,-99.99,,2013-01-14 21:22:00,
2013-01-14 14:32:00,1.0,-1.0,-100.00,SE,143,8.0,12.0,90,0.00,,,-99.99,,2013-01-14 21:32:00,
2013-01-14 14:42:00,2.0,0.0,-100.00,SSE,154,6.0,9.0,91,0.00,,,-99.99,,2013-01-14 21:42:00,
2013-01-14 14:53:00,2.0,0.0,-100.00,SSE,154,6.0,9.0,91,0.00,,,-99.99,,2013-01-14 21:53:00,
2013-01-14 15:02:00,2.0,0.0,-100.00,SSE,147,7.0,10.0,91,0.00,,,-99.99,,2013-01-14 22:02:00,
2013-01-14 15:12:00,2.0,0.0,-100.00,SE,137,7.0,11.0,91,0.04,,,-99.99,,2013-01-14 22:12:00,
2013-01-14 15:23:00,2.0,0.0,-100.00,SE,137,8.0,11.0,91,0.04,,,-99.99,,2013-01-14 22:23:00,
2013-01-14 15:30:00,2.0,0.0,-100.00,SSE,148,6.0,8.0,91,0.16,,,-99.99,,2013-01-14 22:30:00,
2013-01-14 15:32:00,2.0,0.0,-100.00,SE,137,8.0,11.0,91,0.04,,,-99.99,,2013-01-14 22:32:00,
2013-01-14 15:42:00,2.0,0.0,-100.00,SE,138,7.0,9.0,91,0.12,,,-99.99,,2013-01-14 22:42:00,
2013-01-14 15:52:00,2.0,0.0,-100.00,SSE,148,6.0,8.0,91,0.16,,,-99.99,,2013-01-14 22:52:00,
2013-01-14 16:02:00,2.0,0.0,-100.00,SSE,148,6.0,8.0,91,0.16,,,-99.99,,2013-01-14 23:02:00,
2013-01-14 16:12:00,2.0,0.0,-100.00,SSE,148,6.0,8.0,91,0.16,,,-99.99,,2013-01-14 23:12:00,
2013-01-14 16:22:00,2.0,0.0,-100.00,SSE,148,6.0,8.0,91,0.16,,,-99.99,,2013-01-14 23:22:00,
2013-01-14 16:43:00,2.0,0.0,-100.00,SE,127,6.0,8.0,91,0.08,,,-99.99,,2013-01-14 23:43:00,
2013-01-14 16:53:00,2.0,0.0,-100.00,ESE,121,8.0,10.0,91,0.08,,,-99.99,,2013-01-14 23:53:00,
2013-01-14 17:02:00,2.0,0.0,-100.00,ESE,121,8.0,10.0,91,0.08,,,-99.99,,2013-01-15 00:02:00,
2013-01-14 17:12:00,2.0,0.0,-100.00,ESE,121,8.0,10.0,91,0.08,,,-99.99,,2013-01-15 00:12:00,
2013-01-14 17:22:00,2.0,-1.0,-100.00,SE,127,8.0,9.0,91,0.04,,,-99.99,,2013-01-15 00:22:00,
2013-01-14 17:30:00,1.0,-1.0,-100.00,ESE,119,7.0,9.0,90,0.20,,,-99.99,,2013-01-15 00:30:00,
2013-01-14 17:32:00,2.0,-1.0,-100.00,SE,127,8.0,9.0,91,0.04,,,-99.99,,2013-01-15 00:32:00,
2013-01-14 17:43:00,1.0,-1.0,-100.00,SE,130,7.0,9.0,91,0.12,,,-99.99,,2013-01-15 00:43:00,
2013-01-14 17:53:00,1.0,-1.0,-100.00,ESE,119,7.0,9.0,90,0.20,,,-99.99,,2013-01-15 00:53:00,
2013-01-14 18:02:00,1.0,-1.0,-100.00,ESE,119,7.0,9.0,90,0.20,,,-99.99,,2013-01-15 01:02:00,
2013-01-14 18:12:00,1.0,-1.0,-100.00,ESE,119,7.0,9.0,90,0.20,,,-99.99,,2013-01-15 01:12:00,
2013-01-14 18:22:00,1.0,-1.0,-100.00,ESE,119,7.0,9.0,90,0.20,,,-99.99,,2013-01-15 01:22:00,
2013-01-14 18:43:00,1.0,-1.0,-100.00,ESE,123,7.0,9.0,90,0.12,,,-99.99,,2013-01-15 01:43:00,
2013-01-14 18:52:00,1.0,-1.0,-100.00,SE,130,6.0,8.0,91,0.08,,,-99.99,,2013-01-15 01:52:00,
2013-01-14 19:02:00,1.0,-1.0,-100.00,SE,130,6.0,8.0,91,0.08,,,-99.99,,2013-01-15 02:02:00,
2013-01-14 19:11:00,1.0,-1.0,-100.00,SE,130,6.0,8.0,91,0.08,,,-99.99,,2013-01-15 02:11:00,
2013-01-14 19:22:00,1.0,-1.0,-100.00,SE,130,6.0,8.0,91,0.08,,,-99.99,,2013-01-15 02:22:00,
2013-01-14 19:32:00,1.0,-1.0,-100.00,SE,133,6.0,8.0,90,0.04,,,-99.99,,2013-01-15 02:32:00,
2013-01-14 19:42:00,1.0,-2.0,-100.00,ESE,121,9.0,10.0,90,0.12,,,-99.99,,2013-01-15 02:42:00,
2013-01-14 19:53:00,0.0,-2.0,-100.00,ESE,117,7.0,9.0,90,0.12,,,-99.99,,2013-01-15 02:53:00,
2013-01-14 20:02:00,0.0,-2.0,-100.00,ESE,117,7.0,9.0,90,0.12,,,-99.99,,2013-01-15 03:02:00,
2013-01-14 20:12:00,0.0,-2.0,-100.00,ESE,117,7.0,9.0,90,0.12,,,-99.99,,2013-01-15 03:12:00,
2013-01-14 20:22:00,0.0,-2.0,-100.00,SE,127,6.0,8.0,90,0.12,,,-99.99,,2013-01-15 03:22:00,
2013-01-14 20:32:00,0.0,-2.0,-100.00,SE,127,6.0,8.0,90,0.12,,,-99.99,,2013-01-15 03:32:00,
2013-01-14 20:42:00,0.0,-2.0,-100.00,SE,124,6.0,7.0,90,0.08,,,-99.99,,2013-01-15 03:42:00,
2013-01-14 20:52:00,0.0,-2.0,-100.00,ESE,120,6.0,8.0,90,0.08,,,-99.99,,2013-01-15 03:52:00,
2013-01-14 21:02:00,0.0,-2.0,-100.00,ESE,120,6.0,8.0,90,0.08,,,-99.99,,2013-01-15 04:02:00,
2013-01-14 21:12:00,0.0,-2.0,-100.00,SE,126,5.0,6.0,90,0.04,,,-99.99,,2013-01-15 04:12:00,
2013-01-14 21:42:00,0.0,-2.0,-100.00,ESE,110,5.0,6.0,90,0.08,,,-99.99,,2013-01-15 04:42:00,
2013-01-14 21:52:00,0.0,-2.0,-100.00,ESE,110,5.0,6.0,90,0.08,,,-99.99,,2013-01-15 04:52:00,
2013-01-14 22:03:00,0.0,-2.0,-100.00,ESE,110,5.0,6.0,90,0.08,,,-99.99,,2013-01-15 05:03:00,
2013-01-14 22:12:00,1.0,-2.0,-100.00,SE,128,5.0,7.0,90,0.08,,,-99.99,,2013-01-15 05:12:00,
2013-01-14 22:22:00,0.0,-2.0,-100.00,SE,136,5.0,6.0,90,0.04,,,-99.99,,2013-01-15 05:22:00,
2013-01-14 22:33:00,0.0,-2.0,-100.00,SE,136,5.0,6.0,90,0.04,,,-99.99,,2013-01-15 05:33:00,
2013-01-14 22:42:00,0.0,-2.0,-100.00,SE,130,5.0,6.0,90,0.00,,,-99.99,,2013-01-15 05:42:00,
2013-01-14 22:52:00,0.0,-2.0,-100.00,SE,130,5.0,6.0,90,0.00,,,-99.99,,2013-01-15 05:52:00,
2013-01-14 23:02:00,1.0,-1.0,-100.00,SE,133,5.0,6.0,91,0.04,,,-99.99,,2013-01-15 06:02:00,
2013-01-14 23:12:00,2.0,0.0,-100.00,SE,124,5.0,7.0,91,0.04,,,-99.99,,2013-01-15 06:12:00,
2013-01-14 23:22:00,2.0,0.0,-100.00,SE,124,5.0,7.0,91,0.04,,,-99.99,,2013-01-15 06:22:00,
2013-01-14 23:32:00,2.0,0.0,-100.00,SE,124,5.0,7.0,91,0.04,,,-99.99,,2013-01-15 06:32:00,
2013-01-14 23:42:00,2.0,0.0,-100.00,SE,124,6.0,9.0,91,0.04,,,-99.99,,2013-01-15 06:42:00,
2013-01-14 23:53:00,2.0,0.0,-100.00,SE,124,6.0,9.0,91,0.04,,,-99.99,,2013-01-15 06:53:00,